Погода в Гривенке

Россия / Челябинская область     55°37′29″N   59°36′24″E
темп.,
°C
ветер,
м/с
пор.,
м/с
влажн.,
%
обл.,
%
осадки,
мм/ч
давл.,
гПа
погр.,
м
15 апреля, чт
чт1523:00+10ююв118649 0.0 102810
02:00+8ююз118942 0.0 102710
05:00+7юз229448 0.0 102811
08:00+9ююз13885 0.0 102794
11:00+14зюз36475 0.0 1025656
14:00+17зюз46425 0.0 1023984
17:00+17з36436 0.0 10221136
20:00+11з11680 0.0 102110
16 апреля, пт
пт1623:00+8юз11760 0.0 102110
02:00+7ююз228443 0.0 102116
05:00+6ююз2285100 0.0 102115
08:00+8ююв0176100 0.0 102250
11:00+11всв447046 0.0 1022742
14:00+9всв557353 0.0 1023594
17:00+8в457572 0.0 1024598
20:00+5в358443 0.0 1024374
17 апреля, сб
сб1723:00+3всв239239 0.0 1024112
02:00+3в129285 0.0 102457
05:00+4всв128896 0.0 102396
08:00+4всв238187 0.0 1023273
11:00+7в236783 0.0 1023764
14:00+9вюв225519 0.0 10221208
17:00+11ююз12465 0.0 10211569
20:00+6з11653 0.0 102117
18 апреля, вс
вс1823:00+3ссз11715 0.0 102110
02:00+1зсз11765 0.0 102010
05:000з118368 0.0 102010
08:00+3зсз38692 0.0 1019506
11:00+6сз595786 0.0 10171552
14:00+4ссз5866100 0.4 10191262
17:00+3св6643100 0.4 10201771
20:00−1св6106311 0.0 10251107
19 апреля, пн
пн1923:00−3св49515 0.0 10281249
02:00−4св48481 0.0 10311302
05:00−6ссв48474 0.0 10331338
08:00−6ссв47375 0.0 10351351
11:00−2ссв473095 0.0 10351990
14:00+1с4726100 0.0 10342422
17:00+2с4726100 0.0 10332461
20:00−2ссв114482 0.0 103511